Погода в Курске

Хотите узнать прогноз погоды в Курске? Тогда Вам сюда: Погода в Курске

Поиск расширенной информации на нашем сайте:

Полезная информация:

Новости сайта



02.01.2020
Опубликован Долгосрочный прогноз погоды по городам России и ближнего зарубежья на январь 2020 года.
Карты: Прогноз на январь и февраль 2020 года, Сравнение прогнозируемой аномалии приземной температуры воздуха на январь 2020 года по разным моделям.




Погода в Курске - сегодня

Время (UTC), дата Ветер
(°,м/с) 
Видим.   Явления Облачность Т
(°С)
Тd
(°С)
f(%) Тe
(°С)
Pmin
(гПа)
dP
(гПа)
Po
(мм)
O2
(г/м3)
Тmin Tmax R s Состояние
почвы
09 16.01.21 260 (З) 2000 м  слаб. ливневой снег  10/10 600 м кучево-дожд. 
[Cb cap]
-14.5 -16.8 83 -19  1009.1  1.3  733  313           
12 16.01.21 260 (З) 10 км  позёмок{ливн. осадки}  8/3 600 м средняя, верхняя 
[Sc|Ac trans|Ci fib]
-14.3 -17.1 79 -19  1010  0.8  733  313           
15 16.01.21 260 (З) 10 км  слаб. ливневой снег  9/4 600 м кучево-дожд., средняя, верхняя 
[Cb cap|Ac trans|Ci fib]
-16.4 -19.2 79 -21  1011.7  1.5  734  316      0.2     
18 16.01.21 260 (З) 10 км  слаб. ливневой снег  10/10 600 м 
-16.2 -19.1 78 -22  1012.3  0.6  735  316    -14  0.2     
21 16.01.21 250 (З) 10 км  позёмок{ливн. осадки}  4/0 верхняя 
[Ci fib]
-18.5 -20.9 81 -24  1013.5  0.8  735  319           
00 17.01.21 260 (З) 10 км  позёмок{ливн. осадки}  10/10 600 м 
[Sc]
-19.5 -21.8 82 -24  1013.9  0.3  736  321           
03 17.01.21 250 (З) 10 км    10/10 600 м 
[Sc]
-19.3 -21.6 82 -22  1013.7  -0.2  735  320  -19.5    0.0     
06 17.01.21 290 (З) 4000 м  слаб. ливневой снег  10/10 600 м кучево-дожд. 
[Cb cap]
-19.5 -22 81 -20  1014.4  0.7  736  321  -19.5    0.0  17  неравномерный
сухой снег
100% 
09 17.01.21 тихо ()   10 км  {ливн. осадки}  8/0 верхняя 
[Ci fib]
-17.1 -21.4 69 -17  1015.3  1.2  737  318           
12 17.01.21 250 (З) 10 км  {ливн. осадки}  ясно 
-16.1 -20.4 69 -18  1014.9  -0.3  737  317           
15 17.01.21 330 (СЗ) 10 км    ясно 
-18.6 -21.1 81 -19  1016.8  1.5  738  321      0.0     
18 17.01.21 050 (СВ) 10 км    ясно 
-18.9 -21.5 80 -19  1017.2  0.4  738  321    -15.5  0.0     
21 17.01.21 070 (В) 10 км    10/10 600 м 
[Sc]
-19.8 -21.9 83 -20  1017.8  0.5  738  322           
00 18.01.21 060 (СВ) 10 км    10/10 600 м 
[Sc]
-20 -22.1 83 -23  1018.4  0.5  739  323           
03 18.01.21 040 (СВ) 10 км    10/10 600 м 
[Sc]
-18.8 -21.3 81 -21  1017.4  -0.9  738  321  -20.1         
06 18.01.21 030 (СВ) 10 км  {ливн. осадки}  10/10 600 м 
[Sc]
-19.1 -21.3 83 -22  1018.2  0.8  739  322  -20.1    0.0  17  неравномерный
сухой снег
100% 
09 18.01.21 050 (СВ) 10 км    9/3 600 м верхняя 
[Sc|Ci fib]
-16.4 -19.3 78 -19  1018.2  0.3  739  318           
12 18.01.21 020 (С) 10 км    9/0 верхняя 
[Ci fib]
-14.3 -17.7 75 -14  1017.4  -0.5  739  315           
15 18.01.21 040 (СВ) 4000 м  слаб. снег  10/0 средняя 
[As op]
-15.5 -17.6 84 -18  1017.6  0.1  739  317      0.2     
18 18.01.21 030 (СВ) 4000 м  слаб. снег  10/0 средняя 
[As op]
-16.2 -18 86 -16  1018.5  0.7  739  318    -14.2  0.7     
21 18.01.21 030 (СВ) 10 км  {снег}  ясно 
-16.8 -18.6 86 -17  1018.5  739  319           
00 19.01.21 050 (СВ) 10 км  {снег}  3/0 средняя 
[Ac trans]
-18.1 -19.9 86 -21  1018.5  -0.2  739  320           
03 19.01.21 тихо ()   10 км    ясно 
-19.4 -21.5 83 -19  1018.3  -0.2  739  322  -20.3    0.5     
06 19.01.21 тихо ()   4000 м  слаб. ливневой снег  10/10 600 м кучево-дожд. 
[Cb cap]
-17.5 -19.4 85 -18  1018.5  0.4  739  320  -20.3    0.0  17  неравномерный
сухой снег
100% 
09 19.01.21 300 (СЗ) 10 км  {ливн. осадки}  9/4 600 м средняя 
[Sc diur, vesp|Ac trans]
-15.9 -18.1 83 -16  1018.9  0.5  740  318           
Время (UTC), дата Ветер
(°,м/с) 
Видим.   Явления Облачность Т
(°С)
Тd
(°С)
f(%) Тe
(°С)
Pmin
(гПа)
dP
(гПа)
Po
(мм)
O2
(г/м3)
Тmin Tmax R s Состояние
почвы

Для получения пояснительной информации подведите курсор к названию столбца.

ПОГОДА в Курске - архив

Всё, что Вы хотите узнать о погоде в Курске - удобно и подробно!

Выберите нужную дату (начиная с 1 января 2019* года) и нажмите кнопку "Найти".
Будут отображены архивные сводки погоды по пункту Курск, начиная с указанной даты.


Отображать данные в формате CSV (для использования в таблицах Excel)


Внимание! Наш архив погоды предназначен исключительно для личного некоммерческого использования в познавательных целях. Если Вам необходимы официальные справки о состоянии погоды (для производственных, юридических, коммерческих и т.п. целей), обращайтесь в органы Росгидромета.

*Примечание: данная дата относится к архиву по метеостанциям СССР (Россия, СНГ, Балтия).
Архив по метеостанциям Зарубежной Европы и Азии (кроме Китая) хранится 10 дней, по другим регионам земного шара (Китай, Африка, Америка, Австралия, Океания) - 1 день.

Курск - район местоположения метеостанции


Название, широта, долгота, высота метеостанции:
Курск 51.8°ш. 36.2°д. 247 м над ур. моря [Российская Федерация]

Дополнительная информация

В oтличие oт бoльшинства пoгoдных сайтoв мы публикуем пoдрoбную метеoинфoрмацию в детальнoм прoфессиoнальнoм фoрмате.

Характеристики температуры и влажнoсти вoздуха измеряются на высoте 2 м в тени вдали oт зданий и деревьев.
Скoрoсть ветра измеряется на высoте 10 м (на урoвне рoста челoвека скoрoсть ветра ниже в 1.5-2 раза). Если метеoстанция нахoдится в гoрoде или в лесу, тo скoрoсть ветра занижена на 2-4 м/с пo сравнению с oткрытым местoм. Скoрoсть ветра над акватoриями крупных рек и oзёр, а также на вершинах хoлмoв на 2-5 м/с выше, чем в oбычных услoвиях.
Атмoсфернoе давление в разных тoчках местнoсти мoжет значительнo oтличаться oт давления на метеoстанции, в зависимoсти oт услoвий рельефа (при пoдъёме на 10 м давление пoнижается примернo на 1 мм рт.ст.).